Location: Unspecified
(35.7250°N, 0.0000°E)
Time: 11:31:53
(UTC+00:00)

Courier 1B Rocket - Visible Passes

Search period start: 18 June 2019 00:00
Search period end: 28 June 2019 00:00
Orbit: 920 x 1202 km, 28.2° (Epoch: 17 June)

Date Brightness Start Highest point End Pass type
(mag) Time Alt. Az. Time Alt. Az. Time Alt. Az.
18 Jun 6.8 04:06:39 10° SSW 04:10:39 17° SSE 04:14:31 10° ESE visible
19 Jun 7.0 03:07:32 10° S 03:09:50 12° SSE 03:12:05 10° SE visible
20 Jun 6.5 03:56:30 10° SSW 04:01:42 23° SSE 04:06:41 10° ESE visible
21 Jun 6.7 02:58:34 15° S 03:00:51 18° SSE 03:05:11 10° ESE visible
22 Jun 7.1 02:01:04 13° SE 02:01:04 13° SE 02:03:02 10° SE visible
22 Jun 6.1 03:47:25 12° SW 03:52:49 30° SSE 03:58:26 10° ESE visible
23 Jun 6.3 02:49:54 22° S 02:51:54 25° SSE 02:57:15 10° ESE visible
24 Jun 6.7 01:52:22 19° SE 01:52:22 19° SE 01:55:47 10° ESE visible
24 Jun 5.8 03:38:42 15° SW 03:43:55 37° SSE 03:49:59 10° ESE visible
25 Jun 6.0 02:41:09 28° S 02:42:58 32° SSE 02:48:57 10° ESE visible
26 Jun 6.5 01:43:35 25° SE 01:43:35 25° SE 01:47:44 10° ESE visible
26 Jun 5.7 03:29:56 17° SW 03:35:03 43° S 03:41:24 10° ESE visible
27 Jun 7.4 00:46:01 11° ESE 00:46:01 11° ESE 00:46:15 10° ESE visible
27 Jun 5.8 02:32:22 35° SSW 02:34:02 39° SSE 02:40:27 10° ESE visible
